Regional Weather Roundup
Issued by NWS

Home | Current Version | Previous Version | Text Only | Print | Product List | Glossary Off
Versions: 1 2 3 4 5 6 7 8 9 10 11 12 13 14 15 16 17 18 19 20 21 22 23 24 25 26 27 28 29 30 31 32 33 34 35 36 37 38 39 40 41 42 43 44 45 46 47 48 49 50

000
ASUS43 KLOT 211308
RWRIL

ILLINOIS REGIONAL WEATHER ROUNDUP
NATIONAL WEATHER SERVICE CHICAGO/ROMEOVILLE IL
800 AM CDT MON MAY 21 2018

NOTE: "FAIR" INDICATES FEW OR NO CLOUDS BELOW 12,000 FEET WITH NO
SIGNIFICANT WEATHER AND/OR OBSTRUCTIONS TO VISIBILITY.

* THESE STATIONS ARE NOT UNDER NWS QUALITY CONTROL. THEY ALSO MAY NOT
  REPORT WEATHER SUCH AS PRECIPITATION OR FOG.

ILZ001-002-007-009-015-016-024-211400-
NORTHWEST ILLINOIS

CITY           SKY/WX    TMP DP  RH WIND       PRES   REMARKS
MOLINE         CLOUDY    56  53  90 E12       30.07R
SAVANNA*       LGT RAIN  54  53  97 E9        30.08S
$$

ILZ003-004-008-010-011-017-018-211400-
NORTH CENTRAL ILLINOIS

CITY           SKY/WX    TMP DP  RH WIND       PRES   REMARKS
ROCKFORD       LGT RAIN  52  50  93 E7        30.13S FOG
FREEPORT*      LGT RAIN  51  51  99 E8        30.11F
ROCHELLE*      RAIN      54  54  99 E8        30.10S
DE KALB*       DRIZZLE   53  53  99 E12       30.11S
PERU*          RAIN      58  56  95 CALM      30.11R
$$

ILZ005-006-012>014-019>023-211400-
NORTHEAST ILLINOIS

CITY           SKY/WX    TMP DP  RH WIND       PRES   REMARKS
CHICAGO-OHARE  RAIN      51  49  92 E3        30.12F
CHICAGO-MIDWAY RAIN      55  53  93 E7        30.13S FOG
AURORA         LGT RAIN  54  53  97 NE14      30.09F FOG
LANSING*       HVY RAIN  52  52 100 NE7       30.13R
JOLIET*        RAIN      57  57 100 E9        30.10F
WAUKEGAN       HVY RAIN  50  50 100 E6        30.16R VSB 3/4
DUPAGE AIRPORT HVY RAIN  52  52 100 NE5       30.12R FOG
KANKAKEE*      DRIZZLE   58  57  98 E7        30.11S
WHEELING       RAIN      51  50  96 NE8       30.14F FOG
MORRIS*        LGT RAIN  56  55  96 E12       30.07F
ROMEOVILLE*    RAIN      54  54  99 E10       30.12S
NORTHERLY ISL    N/A     51  49  92 N5          N/A
$$

LMZ740>746-211400-
SOUTHERN LAKE MICHIGAN

STATION/POSITION SKY/WX   TEMP    WIND        PRES    VSBY  WAVE
                          AIR SEA DIR/SP/G                  HT/PER
                          (F)     (DEG/KT/KT) (MB)    (MI)  (FT/S)
WILMETTE HARBOR            47 46   10/ 12/ 16   N/A           1/ 5
HARRISON CRIB              52     360/ 10/ 11   N/A
BURNHAM HARBOR             52      20/  4/ 17   N/A
CALUMET HARBOR             51     330/  4/  6 1020.1R
BURNS HARBOR               61     110/ 13/ 21 1019.6F
MICHIGAN CITY 6N           57 53  120/  8/ 12   N/A           2/ 4
ST. JOSEPH                 58 52  120/  8/ 12 1020.6          2/ 4
$$

ILZ025>027-034>036-040-047-049-050-058-095>099-211400-
WEST-CENTRAL ILLINOIS

CITY           SKY/WX    TMP DP  RH WIND       PRES   REMARKS
QUINCY         LGT RAIN  65  63  93 S7        30.04S
GALESBURG*     RAIN      56  56  98 E7        30.07F
MACOMB*        HVY RAIN  58  58 100 E6        30.08R VSB 3/4
JACKSONVILLE*  CLOUDY    62  61  96 CALM      30.07R FOG
PITTSFIELD*    RAIN      66  65  97 SE5       30.06S
$$

ILZ028>032-037-038-041>044-048-051>054-059>061-211400-
CENTRAL ILLINOIS

CITY           SKY/WX    TMP DP  RH WIND       PRES   REMARKS
PONTIAC        CLOUDY    59  58  97 SE10      30.09R FOG
BLOOMINGTON    PTSUNNY   60  59  96 S5        30.10R FOG
DECATUR        CLOUDY    64  62  93 SE5       30.08R
PEORIA         LGT RAIN  58  57  97 E7        30.08R FOG
LACON*         CLOUDY    56  56 100 NE3       30.07F FOG
LINCOLN*       CLOUDY    64  62  96 SE6       30.07S
SPRINGFIELD    CLOUDY    63  63 100 CALM      30.07S FOG
TAYLORVILLE    PTSUNNY   67  67  98 S8        30.08S
$$

ILZ033-039-045-046-055>057-062-063-211400-
EAST-CENTRAL ILLINOIS

CITY           SKY/WX    TMP DP  RH WIND       PRES   REMARKS
CHAMPAIGN      CLOUDY    64  63  96 SE9       30.09R FOG
DANVILLE*      FAIR      64  63  96 E8        30.07R FOG
RANTOUL*       CLOUDY    65  65  97 SE5       30.09R FOG
MATTOON        LGT RAIN  67  66  97 SE7       30.09R FOG
PARIS*         FAIR      68  66  94 S6        30.11R
$$

ILZ079-100>102-211400-
SOUTHWEST ILLINOIS

CITY           SKY/WX    TMP DP  RH WIND       PRES   REMARKS
ALTON          CLOUDY    64  64 100 SE6       30.08R
CAHOKIA*       CLOUDY    67  64  90 CALM      30.07R
SPARTA*        CLOUDY    67  67 100 CALM      30.08S
$$

ILZ064>066-069>071-074>076-080>082-084>086-088>090-092>094-211400-
SOUTH-CENTRAL ILLINOIS

CITY           SKY/WX    TMP DP  RH WIND       PRES   REMARKS
CARBONDALE     FAIR      69  66  90 SE3       30.06F
CAIRO*         LGT RAIN  69  67  96 SE3       30.05F
EFFINGHAM*     LGT RAIN  68  68 100 CALM      30.11R
MARION         LGT RAIN  68  66  94 S7        30.08F
CENTRALIA*     LGT RAIN  67  66  97 CALM      30.09S
SALEM*         LGT RAIN  67  64  89 CALM      30.10R
$$

ILZ067-068-072-073-078-083-087-091-211400-
SOUTHEAST ILLINOIS

CITY           SKY/WX    TMP DP  RH WIND       PRES   REMARKS
LAWRENCEVILLE  FAIR      71  66  84 S10       30.12R
FLORA*         DRIZZLE   69  67  93 S6        30.11R
FAIRFIELD*     LGT RAIN  68  66  94 SE3       30.10S
HARRISBURG*    FAIR      69  68  97 E7        30.09F
ROBINSON*      FAIR      69  67  93 S10       30.12R
CARMI*         FAIR      69  67  93 S5        30.10F
$$

ABBREVIATIONS USED IN REMARKS
   TC - TEMPERATURE IN CELSIUS
  WCI - WIND CHILL INDEX
   HX - HEAT INDEX
  VSB - VISIBILITY
$$




USA.gov is the U.S. government's official web portal to all federal, state and local government web resources and services.